Zurück zum Katalog

VESSELSAT 1

AktivKommunikationLEO
NORAD 37840·PAYLOAD·🇱🇺 Luxembourg

Gestartet Oct 12, 2011 von Satish Dhawan Space Centre

Loading…

Nächste Überflüge (nächste 24 Stunden)

TLE

AktuellSource: Space-Track

Epoche: Sep 14, 2026, 01:16 UTC

1 37840U 11058C   26257.05343558  .00000335  00000-0  38235-4 0  9998
2 37840  19.9609 227.3006 0013769 139.1131 221.0308 14.11448155770502

Verfolge VESSELSAT 1 in Echtzeit mit AllMySat

Download on the App Store